Hourly Data Report for May 23, 2022

TORONTO CITY
ONTARIO
Current Station Operator: ECCC - MSC

43°40'00.000" N
79°24'00.000" W
112.50 m
6158355
71508
XTO

Download Data

Hourly Data (May 2022)
Hourly Data Report for May 23, 2022
TIME
LST
Temp Definition
°C
Dew Point Definition
°C
Rel Hum Definition
%
Precip. Amount Definition
mm

Wind Dir Definition
10's deg

Wind Spd Definition
km/h
Visibility Definition
km
Stn Press Definition
kPa
Hmdx Definition


Wind Chill Definition


Weather Definition


00:00 10.3 6.2 75 0.0       101.16     LegendNANA
01:00 9.5 5.8 78 0.0       101.23     LegendNANA
02:00 9.1 3.9 70 0.0       101.22     LegendNANA
03:00 9.2 2.0 61 0.0       101.22     LegendNANA
04:00 9.0 1.5 59 0.0       101.22     LegendNANA
05:00 8.0 1.0 61 0.0       101.24     LegendNANA
06:00 8.7 1.5 60 0.0       101.28     LegendNANA
07:00 10.4 1.3 53 0.0       101.31     LegendNANA
08:00 12.1 2.3 51 0.0       101.35     LegendNANA
09:00 14.0 4.4 52 0.0       101.36     LegendNANA
10:00 14.4 3.8 49 0.0       101.37     LegendNANA
11:00 14.4 4.1 50 0.0       101.37     LegendNANA
12:00 14.8 4.8 51 0.0       101.34     LegendNANA
13:00 14.7 5.3 53 0.0       101.29     LegendNANA
14:00 15.9 5.0 48 0.0       101.27     LegendNANA
15:00 15.8 1.4 38 0.0       101.24     LegendNANA
16:00 15.7 2.0 40 0.0       101.19     LegendNANA
17:00 15.8 2.2 40 0.0       101.18     LegendNANA
18:00 15.0 1.1 39 0.0       101.18     LegendNANA
19:00 14.2 0.8 40 0.0       101.19     LegendNANA
20:00 13.1 0.9 43 0.0       101.17     LegendNANA
21:00 12.0 1.7 49 0.0       101.23     LegendNANA
22:00 12.4 2.5 51 0.0       101.25     LegendNANA
23:00 12.2 2.8 52 0.0       101.23     LegendNANA

Notes on Data Quality.

Legend

  • E = Estimated
  • M = Missing
  • NA = Not Available*
  • [empty] = Indicates an unobserved value
Date modified: